Lovelock, NV

5:40 PM PST on January 16, 2018 (GMT -0800)
Derby

Weather History for KLOL - January, 2014

Change the Weather History Date:

Saturday, January 25, 2014

  Actual Average Record
Temperature  
Mean Temperature 32 °F -  
Max Temperature 52 °F 44 °F 63 °F (1953)
Min Temperature 12 °F 17 °F -38 °F (1949)
Degree Days  
Heating Degree Days 33    
Moisture  
Dew Point 8 °F    
Average Humidity 44    
Maximum Humidity 67    
Minimum Humidity 20    
Precipitation  
Precipitation 0.00 in - - ()
Sea Level Pressure  
Sea Level Pressure 30.43 in    
Wind  
Wind Speed 1 mph (ESE)    
Max Wind Speed 7 mph    
Max Gust Speed -    
Visibility 10 miles    
Events      
Averages and records for this station are not official NWS values.
T = Trace of Precipitation, MM = Missing Value Source: NWS Daily Summary

Daily Weather History Graph

Daily Weather History Graph

Search for Another Location

Airport or City:

Trip Planner

Search our weather history database for the weather conditions in past years. The results will help you decide how hot, cold, wet, or windy it might be!

Date:

Astronomy

Jan. 25, 2014 Rise Set
Actual Time 7:08 AM PST 5:05 PM PST
Civil Twilight 6:39 AM PST 5:34 PM PST
Nautical Twilight 6:06 AM PST 6:07 PM PST
Astronomical Twilight 5:34 AM PST 6:39 PM PST
Moon 1:46 AM PST (1/25) 12:09 PM PST (1/25)
Length of Visible Light 10h 54m
Length of Day
9h 56m
Waning Crescent, 33% of the Moon is Illuminated
Jan 25
Waning Crescent
Jan 30
New
Feb 6
First Quarter
Feb 14
Full
Feb 22
Last Quarter

Hourly Weather History & Observations

Time (PST) Temp. Windchill Dew Point Humidity Pressure Visibility Wind Dir Wind Speed Gust Speed Precip Events Conditions
12:53 AM 21.9 °F - 8.1 °F 55% 30.46 in 10.0 mi Calm Calm - N/A   Clear
1:53 AM 21.9 °F - 7.0 °F 53% 30.47 in 10.0 mi Calm Calm - N/A   Clear
2:53 AM 17.1 °F - 5.0 °F 59% 30.47 in 10.0 mi Calm Calm - N/A   Clear
3:53 AM 14.0 °F 8.2 °F 3.0 °F 62% 30.47 in 10.0 mi SE 3.5 mph - N/A   Clear
4:53 AM 18.0 °F 12.7 °F 5.0 °F 57% 30.47 in 10.0 mi East 3.5 mph - N/A   Clear
5:53 AM 14.0 °F 6.5 °F 3.9 °F 64% 30.50 in 10.0 mi East 4.6 mph - N/A   Clear
6:53 AM 12.0 °F - 3.0 °F 67% 30.52 in 10.0 mi Calm Calm - N/A   Clear
7:53 AM 16.0 °F - 3.9 °F 59% 30.54 in 10.0 mi Calm Calm - N/A   Clear
8:53 AM 26.1 °F - 10.0 °F 51% 30.53 in 10.0 mi Calm Calm - N/A   Clear
9:53 AM 34.0 °F - 10.9 °F 38% 30.49 in 10.0 mi Calm Calm - N/A   Clear
10:53 AM 43.0 °F - 12.9 °F 30% 30.48 in 10.0 mi Calm Calm - N/A   Clear
11:53 AM 48.0 °F - 10.9 °F 22% 30.43 in 10.0 mi Calm Calm - N/A   Clear
12:53 PM 51.1 °F - 10.9 °F 20% 30.38 in 10.0 mi Calm Calm - N/A   Clear
1:53 PM 52.0 °F - 12.9 °F 21% 30.35 in 10.0 mi South 3.5 mph - N/A   Clear
2:53 PM 52.0 °F - 12.9 °F 21% 30.36 in 10.0 mi South 3.5 mph - N/A   Clear
3:53 PM 52.0 °F - 14.0 °F 22% 30.36 in 10.0 mi SSE 4.6 mph - N/A   Clear
4:53 PM 48.9 °F - 12.9 °F 24% 30.35 in 10.0 mi Calm Calm - N/A   Clear
5:53 PM 37.9 °F - 12.0 °F 35% 30.38 in 10.0 mi Calm Calm - N/A   Clear
6:53 PM 28.0 °F 24.2 °F 8.1 °F 43% 30.41 in 10.0 mi WNW 3.5 mph - N/A   Clear
7:53 PM 26.1 °F 18.4 °F 9.0 °F 49% 30.40 in 10.0 mi ENE 6.9 mph - N/A   Clear
8:53 PM 23.0 °F - 7.0 °F 50% 30.39 in 10.0 mi Calm Calm - N/A   Clear
9:53 PM 18.0 °F - 3.9 °F 54% 30.37 in 10.0 mi Calm Calm - N/A   Clear
10:53 PM 17.1 °F 10.0 °F 1.0 °F 50% 30.35 in 10.0 mi East 4.6 mph - N/A   Clear
11:53 PM 16.0 °F 8.8 °F 3.9 °F 59% 30.34 in 10.0 mi NNE 4.6 mph - N/A   Clear